Preview of NWS' New Version of Forecast
This preview is not operational and should not be used for support decisions.

Regional Weather Roundup (RWR)

Issued by National Weather Service (NWS)

                            
000
ASUS44 KMEG 170500
RWRTN 
TENNESSEE HOURLY STATE WEATHER ROUNDUP
NATIONAL WEATHER SERVICE MEMPHIS TN
1200 AM CDT MON JUN 17 2019

TNZ002-004-019-021-049-052-054-088>092-170600-
WEST TENNESSEE
  
CITY           SKY/WX    TMP DP  RH WIND       PRES   REMARKS
MEMPHIS INTL   CLOUDY    76  71  85 S7        29.93F                  
NWS MEMPHIS      N/A     77 N/A N/A MISG        N/A                   
JACKSON        FAIR      75  69  81 S6        29.95S                  
DYERSBURG      FAIR      74  71  91 S3        29.92F                  
$$

TNZ008-025-027-028-033-062-065-066-170600-
NORTH MIDDLE TENNESSEE
  
CITY           SKY/WX    TMP DP  RH WIND       PRES   REMARKS
NASHVILLE      CLOUDY    79  65  62 SW3       29.98R                  
CLARKSVILLE    FAIR      74  69  85 CALM      29.95F                  
SMYRNA         FAIR      76  66  71 CALM      29.99R                  
CROSSVILLE     FAIR      72  66  81 CALM      30.06S                  
$$

TNZ061-075-076-078-094-096-097-170600-
SOUTH MIDDLE TENNESSEE
  
CITY           SKY/WX    TMP DP  RH WIND       PRES   REMARKS
$$

TNZ017-018-042-046-047-170600-
NORTHEAST TENNESSEE
  
CITY           SKY/WX    TMP DP  RH WIND       PRES   REMARKS
TRI CITIES     MOCLDY    73  66  78 CALM      30.03F                  
$$

TNZ012-013-036-069-073-074-170600-
CENTRAL EAST TENNESSEE
  
CITY           SKY/WX    TMP DP  RH WIND       PRES   REMARKS
KNOXVILLE      MOCLDY    76  67  73 SW9       29.99F                  
OAK RIDGE      FAIR      76  67  73 CALM      30.02F                  
$$

TNZ083-085-099-170600-
SOUTHEAST TENNESSEE
  
CITY           SKY/WX    TMP DP  RH WIND       PRES   REMARKS
CHATTANOOGA    FAIR      78  71  79 S5        30.02F                  
$$

SKY/WX REPORTED AS FAIR MEANS FEW OR NO CLOUDS BELOW
12 THOUSAND FEET.